Regional Weather Roundup
Issued by NWS

Home | Current Version | Previous Version | Graphics & Text | Print | Product List | Glossary On
Versions: 1 2 3 4 5 6 7 8 9 10 11 12 13 14 15 16 17 18 19 20 21 22 23 24 25 26 27 28 29 30 31 32 33 34 35 36 37 38 39 40 41 42 43 44 45 46 47 48 49 50
000
ASUS43 KFSD 272102
RWRSD

WEATHER ROUNDUP FOR SOUTH DAKOTA
NATIONAL WEATHER SERVICE SIOUX FALLS SD
400 PM CDT WED MAY 27 2015

NOTE: "FAIR" INDICATES FEW OR NO CLOUDS BELOW 12,000 FEET WITH NO
SIGNIFICANT WEATHER AND/OR OBSTRUCTIONS TO VISIBILITY.


SDZ001>005-009-010-012>017-272200-
NORTHWEST AND NORTH CENTRAL SOUTH DAKOTA

CITY           SKY/WX    TMP DP  RH WIND       PRES   REMARKS
BUFFALO          N/A     74  51  44 S12G23    29.85F
FAITH            N/A     68  53  58 SE16G26   29.94S
MOBRIDGE       PTSUNNY   82  49  31 S17       29.92F
$$

SDZ012>016-024>037-041>051-057-063-072>074-272200-
SOUTHWEST AND SOUTH CENTRAL SOUTH DAKOTA

CITY           SKY/WX    TMP DP  RH WIND       PRES   REMARKS
RAPID CTY ARPT CLOUDY    67  58  72 SW6       29.94F
PIERRE         PTSUNNY   75  51  43 S17       29.96F
CUSTER         CLOUDY    63  48  58 SW7       30.03S
ELLSWORTH AFB  CLOUDY    69  60  73 N7        29.94
PHILIP         MOSUNNY   72  54  53 SE15      29.93F
PINE RIDGE     PTSUNNY   74  52  46 S17       29.95F
WINNER         MOCLDY    80  46  30 S17G28    30.00F
$$

SDZ004>011-016>023-039-040-272200-
NORTHEAST SOUTH DAKOTA

CITY           SKY/WX    TMP DP  RH WIND       PRES   REMARKS
ABERDEEN       PTSUNNY   83  49  30 W12       29.96F
WATERTOWN      MOSUNNY   82  47  29 S7        30.00F
BROOKINGS      MOSUNNY   81  46  30 N6        30.01S
$$

SDZ017-020-022-023-036>040-048>070-272200-
SOUTHEAST SOUTH DAKOTA

CITY           SKY/WX    TMP DP  RH WIND       PRES   REMARKS
SIOUX FALLS    MOSUNNY   80  49  33 W5        30.01S
HURON          PTSUNNY   81  49  32 SE6       29.98F
CHAMBERLAIN    CLOUDY    74  48  39 SE8       30.00F
MITCHELL       PTSUNNY   82  50  32 SW8       30.01S
YANKTON        MOSUNNY   82  48  30 CALM      30.00F
$$

ABBREVIATIONS USED IN REMARKS
   TC - TEMPERATURE IN CELSIUS
  WCI - WIND CHILL INDEX
   HX - HEAT INDEX
  VSB - VISIBILITY




USA.gov is the U.S. government's official web portal to all federal, state and local government web resources and services.